Belize, Belize

9:27 PM CST on April 29, 2017 (GMT -0600)
Philip S W Goldson International

Weather History for MZBZ - July, 2014

Change the Weather History Date:

Tuesday, July 22, 2014

  Actual Average Record
Temperature  
Mean Temperature 84 °F -  
Max Temperature 89 °F 89 °F 89 °F (1997)
Min Temperature 78 °F 76 °F 73 °F (2012)
Cooling Degree Days 18    
Growing Degree Days 34 (Base 50)    
Moisture  
Dew Point 76 °F    
Average Humidity 73    
Maximum Humidity 89    
Minimum Humidity 57    
Precipitation  
Precipitation 0.24 in 0.27 in - ()
Sea Level Pressure  
Sea Level Pressure 29.97 in    
Wind  
Wind Speed 6 mph ()    
Max Wind Speed 13 mph    
Max Gust Speed -    
Visibility 7.1 miles    
Events Rain , Thunderstorm    
Averages and records for this station are not official NWS values.
T = Trace of Precipitation, MM = Missing Value Source: Averaged Metar Reports

Daily Weather History Graph

Daily Weather History Graph

Search for Another Location

Airport or City:

Trip Planner

Search our weather history database for the weather conditions in past years. The results will help you decide how hot, cold, wet, or windy it might be!

Date:

Astronomy

Jul. 22, 2014 Rise Set
Actual Time 5:29 AM CST 6:30 PM CST
Civil Twilight 5:05 AM CST 6:53 PM CST
Nautical Twilight 4:37 AM CST 7:21 PM CST
Astronomical Twilight 4:09 AM CST 7:49 PM CST
Moon 1:56 AM CST (7/22) 3:10 PM CST (7/22)
Length of Visible Light 13h 47m
Length of Day
13h 00m
Waning Crescent, 16% of the Moon is Illuminated
Jul 22
Waning Crescent
Jul 26
New
Aug 3
First Quarter
Aug 10
Full
Aug 17
Last Quarter

Hourly Weather History & Observations

Time (CST) Temp. Heat Index Dew Point Humidity Pressure Visibility Wind Dir Wind Speed Gust Speed Precip Events Conditions
12:00 AM 82 °F - 77 °F 82% 29.99 in 12 mi ESE 5.8 mph - -   Mostly Cloudy
3:00 AM 81 °F - 76 °F 82% 29.95 in 12 mi Calm Calm - -   Mostly Cloudy
5:00 AM 80.6 °F 87.1 °F 77.0 °F 89% 29.95 in 6.2 mi Calm Calm - N/A   Scattered Clouds
6:00 AM 80 °F - 76 °F 83% 29.97 in 12 mi East 3.5 mph - -   Mostly Cloudy
6:00 AM 80.6 °F 86.2 °F 75.2 °F 84% 29.97 in 6.2 mi East 3.5 mph - N/A   Mostly Cloudy
7:00 AM 82.4 °F 90.9 °F 77.0 °F 84% 29.99 in 6.2 mi ESE 3.5 mph - N/A   Scattered Clouds
8:00 AM 86.0 °F 96.9 °F 77.0 °F 74% 30.00 in 6.2 mi East 6.9 mph - N/A   Mostly Cloudy
9:00 AM 87 °F - 77 °F 66% 30.00 in 12 mi East 9.2 mph - -   Partly Cloudy
9:00 AM 87.8 °F 99.7 °F 77.0 °F 70% 29.99 in 6.2 mi East 9.2 mph - N/A   Scattered Clouds
10:00 AM 87.8 °F 99.7 °F 77.0 °F 70% 30.00 in 6.2 mi ENE 12.7 mph - N/A   Scattered Clouds
12:00 PM 89 °F - 77 °F 60%  in 11 mi East 11.5 mph - -  
12:00 PM 89.6 °F 102.2 °F 77.0 °F 66% 30.00 in 6.2 mi East 11.5 mph - N/A   Scattered Clouds
1:00 PM 89.6 °F 102.2 °F 77.0 °F 66% 29.98 in 6.2 mi East 11.5 mph - N/A   Scattered Clouds
2:00 PM 89.6 °F 102.2 °F 77.0 °F 66% 29.97 in 6.2 mi ENE 11.5 mph - N/A   Scattered Clouds
3:00 PM 89 °F - 76 °F 57% 29.95 in 12 mi East 11.5 mph - -   Partly Cloudy
3:00 PM 89.6 °F 99.8 °F 75.2 °F 62% 29.95 in 6.2 mi East 11.5 mph - N/A   Scattered Clouds
4:00 PM 87.8 °F 99.7 °F 77.0 °F 70% 29.94 in 6.2 mi ENE 9.2 mph - N/A   Scattered Clouds
5:00 PM 87.8 °F 97.6 °F 75.2 °F 66% 29.94 in 6.2 mi ENE 10.4 mph - N/A   Scattered Clouds
5:10 PM 87.8 °F 97.6 °F 75.2 °F 66% 29.96 in 1.9 mi East 11.5 mph - N/A Rain , Thunderstorm Thunderstorms and Rain
5:25 PM 87.8 °F 97.6 °F 75.2 °F 66% 29.96 in 0.9 mi East 10.4 mph - N/A Rain , Thunderstorm Heavy Thunderstorms and Rain
6:00 PM 78 °F - 75 °F 89% 29.98 in 4 mi Calm Calm - - Rain , Thunderstorm Thunderstorms and Rain
6:00 PM 78.8 °F - 75.2 °F 89% 29.97 in 3.7 mi Calm Calm - N/A Rain , Thunderstorm Light Thunderstorms and Rain